RH
46 46 46 44 45 43 40 38 37 38 38 39 40 39 39 40 39 39 38 37 36 36 35 34 34 34 33 33 31 30 28 23 21 20 19 21 26 33 38 41 47 55 61 64 63 61 59 61 65 64 64 62 58 56 58 56 53 53 54 52 50 50 48 46 46 46 46 48 49 51 54 56 56 56 56 56 55 54 54 53 56 62 66 68 68
48 48 47 45 43 42 42 40 36 36 37 37 39 39 40 41 39 39 38 36 35 34 33 31 31 34 33 29 28 28 25 21 20 19 18 19 21 25 29 35 41 46 52 58 62 62 60 61 64 65 64 62 58 56 59 60 58 57 55 53 52 54 52 47 46 46 46 47 48 50 53 55 56 56 55 56 56 55 54 53 55 59 64 68 69
47 49 44 38 35 35 39 43 42 42 40 37 38 37 38 39 38 37 36 35 35 35 34 31 33 35 30 25 25 26 24 23 22 22 24 22 21 22 24 30 36 40 43 48 54 58 62 65 63 63 64 64 62 60 61 64 65 63 58 55 54 56 55 51 49 48 46 47 46 47 49 53 55 56 56 57 58 57 56 55 56 58 62 67 70
41 41 38 35 33 32 34 38 45 49 42 37 39 36 35 37 37 36 35 37 38 37 34 32 34 31 27 27 27 25 23 23 24 26 26 25 23 22 24 27 31 34 36 40 45 51 64 70 65 64 65 67 69 66 63 63 66 66 63 60 58 56 55 53 52 50 49 49 48 47 46 49 53 55 56 56 57 58 58 58 58 59 61 64 68
37 35 35 35 33 29 30 33 42 49 40 37 40 36 35 36 37 38 38 40 39 35 32 32 31 26 25 27 27 25 23 24 27 27 25 27 29 26 24 25 27 30 30 31 35 44 61 66 61 61 63 67 71 69 66 64 66 69 68 65 63 60 57 55 54 53 52 51 50 50 48 48 49 52 54 54 55 56 57 59 60 62 63 64 67
38 38 36 33 31 29 30 33 42 48 44 47 49 38 34 36 37 38 38 39 37 34 32 30 27 23 24 25 26 25 24 28 29 25 24 25 27 26 24 23 25 31 30 27 27 33 49 56 53 56 61 65 67 68 69 68 69 71 70 69 68 65 61 58 57 54 53 52 50 51 51 51 50 51 53 54 54 54 55 58 60 63 64 66 68
40 41 40 33 30 33 34 40 49 48 45 53 52 39 36 36 36 37 38 36 33 31 30 27 24 22 23 24 26 24 25 31 29 27 28 25 26 27 24 23 22 26 28 30 31 30 36 44 48 50 56 59 57 60 66 68 69 69 70 71 70 69 68 64 59 56 54 53 53 52 52 53 53 53 54 55 56 55 55 56 59 62 65 66 67
42 41 42 36 32 34 37 43 49 45 41 46 45 38 37 36 35 36 35 29 26 27 25 24 24 23 24 25 26 25 27 31 30 32 31 27 31 32 28 26 22 20 21 25 32 36 34 36 42 46 50 53 51 51 57 65 67 67 69 71 70 69 70 67 61 57 55 54 53 52 52 53 54 55 55 57 58 58 58 58 59 61 64 66 66
39 38 38 37 35 38 44 44 43 45 43 41 39 35 35 35 33 33 30 23 22 24 23 24 27 25 25 26 26 26 28 30 31 34 35 34 37 37 33 31 28 27 26 24 25 33 36 33 35 39 44 50 52 51 54 62 67 68 69 68 68 67 67 66 61 57 56 54 53 52 52 53 54 54 55 57 58 59 60 60 60 61 63 65 66
38 38 37 39 39 43 51 45 40 49 50 41 35 32 32 29 26 27 25 20 21 22 21 23 24 24 26 26 27 28 29 30 32 36 41 43 41 39 37 37 37 35 34 33 27 27 30 32 32 32 36 42 48 52 53 57 62 65 67 64 62 63 64 66 64 60 57 55 54 54 53 53 55 54 53 55 57 59 60 60 61 61 63 64 65
42 42 39 39 42 49 53 46 42 48 47 37 33 32 28 23 20 20 19 18 19 20 20 20 22 26 26 25 27 29 31 33 36 40 43 45 42 40 41 41 41 38 36 39 38 32 27 28 30 33 37 37 38 46 50 53 55 56 59 60 60 61 63 65 66 65 61 58 56 56 55 54 56 56 54 53 53 55 57 59 61 62 62 63 63
44 47 43 39 42 49 52 50 48 45 41 34 30 28 23 20 19 16 17 19 19 19 19 20 23 27 27 27 28 30 35 37 40 44 46 46 42 38 41 41 41 40 37 37 36 36 31 27 29 34 41 42 38 39 41 44 48 49 51 54 57 60 62 64 65 65 64 62 60 58 57 54 55 57 56 54 51 51 53 54 57 60 62 62 61
49 49 46 44 44 44 45 49 51 45 38 30 24 22 19 17 18 16 18 21 22 22 21 20 23 30 31 27 25 29 37 41 42 46 47 48 42 35 37 38 38 39 37 35 31 31 32 30 32 34 38 44 43 40 41 44 48 51 51 51 53 56 59 63 65 66 66 66 63 59 56 54 54 55 56 56 53 52 53 53 52 54 58 61 61
52 45 42 46 42 36 37 47 53 43 30 24 22 22 20 17 17 20 21 21 22 23 22 20 25 35 33 23 22 29 40 44 41 42 45 44 40 35 33 33 33 33 33 35 33 32 34 34 36 36 35 37 39 43 46 47 48 49 52 53 53 55 56 60 65 68 69 67 63 60 58 55 53 55 57 57 54 53 54 56 54 52 52 54 57
41 36 38 38 32 31 36 44 46 34 21 20 22 23 21 18 17 20 23 24 23 24 23 21 23 29 27 24 28 28 36 45 42 42 47 45 39 34 32 31 29 28 30 33 34 33 33 32 33 33 32 32 33 36 39 40 39 40 44 48 53 56 58 60 63 67 68 68 66 66 65 61 56 56 58 59 57 54 55 57 57 55 53 52 52
31 34 35 30 30 37 37 34 29 22 18 19 21 23 23 21 21 22 24 25 25 26 27 24 22 25 24 28 31 26 31 45 44 44 49 50 46 37 31 31 28 25 27 31 34 35 33 30 29 28 28 28 29 31 32 33 34 35 37 40 44 50 55 59 63 66 68 69 69 70 70 68 64 61 60 60 58 55 57 59 59 57 56 54 53
31 34 33 29 33 36 29 22 19 17 18 20 22 22 21 22 22 23 25 25 25 27 28 27 25 25 24 27 32 36 42 46 43 45 48 48 47 39 31 30 29 27 26 27 30 35 37 33 30 30 29 29 29 30 31 31 32 33 34 34 35 37 42 48 54 59 65 68 70 71 71 71 69 66 64 63 60 57 57 61 61 58 56 56 55
27 29 31 30 29 26 21 19 18 17 18 19 19 18 19 22 20 20 23 24 24 26 26 26 24 23 23 23 27 34 41 45 45 47 46 43 43 40 35 31 30 31 31 30 31 33 36 34 33 33 31 31 30 30 30 31 32 32 32 32 32 32 33 36 40 45 52 58 63 67 71 72 71 69 68 66 63 60 59 61 62 60 56 54 55
25 24 26 26 23 21 20 21 21 21 21 17 17 20 22 23 19 18 23 24 23 26 26 25 25 27 28 26 26 28 33 40 43 41 40 38 37 40 43 39 32 31 32 33 33 32 30 30 30 30 29 29 28 29 30 30 29 30 30 30 30 31 31 32 33 35 38 43 48 54 61 68 73 73 71 69 67 65 64 63 63 63 61 56 54
24 24 25 23 23 23 24 26 25 25 23 20 21 25 23 22 22 20 21 22 23 25 27 26 26 33 38 35 34 34 32 34 32 30 32 33 35 39 43 41 36 35 34 32 33 32 28 27 25 26 27 25 24 26 29 28 27 27 27 27 28 28 29 30 30 31 31 33 36 39 44 52 62 71 74 74 71 70 69 68 66 65 65 62 58
27 27 27 26 26 29 31 32 30 28 27 26 27 27 21 20 25 26 25 25 24 24 26 27 28 35 43 41 41 40 37 35 33 33 35 35 38 40 38 40 43 44 38 32 33 34 32 29 26 26 27 26 25 25 26 26 24 24 23 23 24 24 26 26 27 28 29 29 30 32 34 37 43 53 62 70 73 73 72 70 68 66 66 65 62
29 30 31 32 33 35 36 36 35 34 32 30 29 27 21 22 27 27 27 27 27 25 26 28 28 31 36 37 39 38 38 40 41 42 43 39 38 38 37 39 41 41 38 37 41 40 37 34 32 31 30 29 29 28 28 26 23 23 23 22 22 21 21 22 23 24 25 27 28 28 30 32 33 36 42 50 61 67 70 70 69 67 67 67 67
31 34 36 38 39 39 38 39 39 37 36 34 31 28 25 27 28 24 23 26 27 27 26 26 27 27 29 33 34 35 38 42 43 43 43 41 40 39 37 37 35 35 38 41 44 44 41 39 37 35 33 33 33 33 31 28 25 25 24 24 24 22 22 21 20 20 21 22 24 26 28 30 32 33 34 37 43 50 57 61 61 61 63 65 69
34 39 40 41 42 42 42 42 42 40 40 37 33 29 28 29 28 24 23 24 23 23 24 26 28 29 33 37 36 36 40 44 45 44 44 45 46 44 40 40 40 41 40 39 41 42 41 40 38 37 36 35 35 34 32 32 32 29 27 27 27 26 25 24 22 21 20 20 19 21 23 26 29 31 33 34 36 39 44 49 52 52 53 56 62
40 43 44 45 45 46 46 44 43 43 42 41 37 33 31 30 30 28 26 25 24 24 24 27 30 31 33 36 37 37 41 45 45 45 47 47 46 44 43 44 45 45 42 40 42 42 42 43 41 38 37 37 37 35 33 36 38 32 29 30 30 29 29 27 27 25 23 22 20 20 20 22 25 28 30 31 31 32 34 39 44 46 48 49 52
45 47 49 50 50 51 51 49 45 43 42 42 42 39 34 32 32 32 30 29 29 29 28 29 30 32 33 34 37 38 41 45 46 46 46 46 43 42 44 44 43 42 42 43 42 41 41 43 43 38 35 35 35 34 32 35 36 32 29 31 31 31 31 29 28 27 25 24 23 22 21 20 22 23 26 27 26 26 26 28 32 36 41 45 48
52 53 54 55 57 57 57 55 52 49 45 44 45 44 38 34 34 34 32 32 31 28 28 30 32 35 36 38 41 42 43 45 46 47 46 45 45 45 43 42 40 38 38 39 39 39 38 38 38 36 35 37 36 36 35 33 33 31 28 30 31 31 31 30 28 25 24 24 23 23 22 22 21 21 22 23 23 24 23 23 24 26 31 37 42
57 58 56 54 54 56 57 58 58 56 54 51 50 49 43 38 36 35 34 33 32 29 29 31 34 36 38 41 43 44 47 46 44 46 45 43 44 43 41 42 41 38 34 32 35 39 37 34 36 36 36 39 40 40 40 37 36 36 33 33 33 33 33 32 29 26 23 22 22 22 22 22 21 21 20 19 20 20 21 22 21 22 24 27 33
57 59 57 51 46 47 52 57 60 61 60 58 56 54 50 43 37 35 34 34 34 32 32 33 35 38 40 42 42 43 46 44 42 44 44 42 42 41 40 41 40 36 33 31 32 37 36 33 36 38 36 37 40 43 44 41 39 38 36 35 33 33 35 34 31 28 25 24 23 23 22 22 21 21 20 18 18 18 18 19 20 20 21 23 26
59 60 57 52 45 43 48 55 60 63 64 64 62 60 57 49 40 37 35 34 35 35 35 35 37 40 42 42 41 42 45 43 43 45 43 40 42 42 41 39 37 36 35 33 32 34 36 34 34 39 41 41 42 43 42 41 38 36 36 37 36 35 35 34 32 29 28 27 26 26 25 24 23 22 20 19 18 18 18 18 18 19 20 21 22
61 60 58 56 52 49 50 55 60 62 65 66 65 64 63 56 47 41 38 36 35 36 36 36 38 41 42 41 40 41 44 45 44 46 44 42 43 43 42 41 40 39 37 36 36 36 37 36 36 39 44 45 46 45 43 42 41 38 36 37 37 36 34 33 32 30 29 29 28 28 28 27 27 25 23 21 20 20 20 19 19 19 20 20 21
66 64 64 64 61 58 59 63 64 64 66 68 68 66 65 63 56 47 42 41 40 40 39 37 39 42 41 41 41 42 46 47 46 45 45 44 44 43 43 44 43 42 40 38 39 39 37 37 37 39 43 46 47 49 48 46 45 43 39 38 37 35 33 32 33 33 31 31 31 30 30 30 30 28 27 25 24 24 23 22 22 20 20 20 20
73 68 67 68 66 65 68 70 69 67 65 65 68 66 62 62 61 56 50 47 46 46 44 41 42 43 42 41 42 45 47 47 46 46 45 45 46 45 44 45 45 45 45 42 40 42 41 37 36 38 40 42 43 45 47 48 49 48 45 43 41 40 37 34 36 38 36 35 34 32 31 31 30 29 29 28 28 27 26 25 25 23 22 21 20
74 69 67 68 69 71 73 72 70 67 64 62 65 68 66 63 63 62 60 55 51 50 49 48 47 46 45 43 44 49 49 48 48 46 44 44 46 45 44 43 43 43 46 44 40 42 42 38 36 37 37 37 37 39 42 45 46 46 46 45 44 45 44 40 40 41 39 38 36 35 33 31 29 28 29 30 30 29 27 27 27 26 25 23 21
75 69 67 69 71 73 74 73 71 69 67 64 64 67 69 68 64 60 61 62 60 57 55 54 53 50 45 44 47 51 49 47 49 48 46 47 47 45 42 40 39 40 43 44 40 40 41 40 38 38 35 34 35 35 37 40 40 40 43 45 45 45 45 44 44 43 42 40 38 36 35 33 31 30 29 30 31 30 29 29 28 28 27 26 24
78 70 68 71 71 69 70 71 71 70 69 68 68 67 67 66 61 55 58 63 64 62 56 52 52 50 45 47 51 52 48 46 48 50 49 49 48 45 44 41 40 39 40 41 40 39 40 40 39 40 38 36 36 35 34 36 37 37 40 43 44 44 43 45 46 46 46 43 39 37 35 33 34 33 32 32 32 31 31 31 30 30 29 28 26
77 72 69 69 67 68 69 72 73 72 69 67 68 68 67 65 60 56 59 63 62 60 55 49 49 49 46 48 51 50 48 47 50 52 50 49 48 47 46 45 44 42 39 39 40 39 39 36 36 41 42 40 39 37 35 36 37 39 40 40 42 43 44 46 47 48 49 47 45 42 38 34 34 35 36 36 34 32 32 31 31 31 30 30 28
71 70 67 64 64 68 69 70 71 69 66 64 65 66 66 64 61 59 62 66 64 61 56 49 52 55 51 49 51 51 51 52 54 55 53 52 53 53 54 54 51 47 43 42 43 41 40 38 38 42 43 43 43 41 38 38 39 40 41 41 42 43 45 48 49 49 50 50 47 43 40 38 38 38 38 37 36 35 32 30 30 30 30 29 28
60 61 61 60 60 62 61 61 63 62 62 63 64 67 66 64 63 64 67 71 69 65 60 56 59 63 59 54 53 51 52 56 59 59 59 59 59 58 60 61 56 48 42 42 45 45 42 40 42 45 44 44 46 46 43 41 41 44 46 46 45 45 46 50 50 47 45 43 40 39 40 42 43 42 40 38 37 36 33 31 31 32 31 29 28
53 51 50 50 52 55 55 54 57 60 64 66 64 67 69 67 67 68 71 74 74 70 67 65 64 66 67 64 60 58 60 64 64 63 63 64 64 62 61 62 57 49 41 39 42 46 43 40 43 47 44 43 47 50 48 44 43 46 48 48 45 45 48 49 48 46 45 41 39 41 44 44 43 42 41 38 35 34 34 34 35 35 34 32 31
42 42 40 40 41 45 48 50 54 58 62 64 62 63 68 69 69 71 72 75 77 76 74 73 72 72 71 69 66 63 64 67 67 65 65 68 69 69 67 64 57 50 44 40 43 46 45 42 44 46 47 47 50 53 52 48 46 45 45 45 45 47 50 50 50 50 49 44 42 44 48 47 44 43 41 37 34 36 38 39 40 40 37 36 35
37 38 39 40 39 39 44 49 52 54 57 61 62 64 68 70 70 72 73 75 77 78 76 75 75 75 73 71 68 66 67 71 72 70 72 75 76 74 73 70 63 54 46 42 43 46 47 45 44 46 49 50 51 53 53 50 46 46 45 44 45 46 48 50 52 50 45 44 45 45 46 44 41 38 38 37 37 40 42 41 41 41 40 38 37
42 40 41 42 40 39 43 48 49 50 54 61 65 67 69 71 72 75 78 78 78 78 76 74 74 76 76 73 71 73 74 76 77 75 75 78 78 76 75 75 71 62 50 42 41 44 46 44 44 47 48 47 48 50 51 49 47 48 47 45 45 44 46 50 52 45 39 42 46 43 38 36 36 36 38 40 42 42 41 39 39 40 41 40 38
50 47 42 42 42 40 39 45 49 49 51 59 66 69 71 73 76 79 82 82 82 81 78 75 76 78 78 74 72 74 75 75 78 79 80 81 80 78 78 79 76 67 55 46 42 42 43 43 43 46 46 46 47 47 49 50 49 47 45 43 43 44 48 52 52 46 41 42 43 37 32 35 41 43 42 43 43 41 38 37 38 40 41 41 40
54 50 44 43 46 44 38 42 49 50 51 58 67 71 73 76 79 81 83 84 84 83 80 78 79 81 80 78 77 76 76 78 81 82 81 81 82 83 82 79 77 70 57 48 42 41 42 42 43 45 46 46 47 46 48 50 48 43 40 42 45 47 48 50 49 47 44 40 37 33 30 35 42 45 43 41 40 39 38 39 41 43 42 41 41
52 51 48 46 48 47 42 44 50 53 54 61 68 71 75 78 78 79 81 83 84 84 83 83 84 84 83 82 81 80 80 82 83 83 83 82 83 85 82 78 77 72 58 49 46 45 44 44 45 48 50 52 51 48 47 46 43 39 39 42 47 48 47 46 45 42 39 34 31 32 32 35 38 39 39 38 38 40 44 47 49 48 45 43 42
53 51 49 47 48 51 50 49 52 54 55 62 70 73 76 77 75 73 77 82 84 85 87 87 86 86 85 83 83 82 83 85 86 86 86 84 82 82 81 78 76 68 57 52 50 47 45 46 48 50 52 52 49 44 41 40 38 39 42 45 48 48 46 44 41 38 35 31 30 32 34 34 35 36 37 39 42 47 53 57 56 53 50 48 46
59 56 51 46 48 54 55 51 53 55 58 66 75 77 74 72 69 67 72 79 82 84 86 86 84 85 85 85 84 84 85 88 89 88 85 82 80 78 77 75 69 60 54 52 49 45 44 45 47 49 50 47 42 39 38 39 40 40 43 47 48 48 46 44 41 37 32 29 29 31 33 33 34 36 37 41 49 55 61 63 62 59 58 55 52
66 61 54 48 48 55 56 52 52 55 58 66 75 76 71 65 63 64 69 76 80 83 84 83 81 82 84 84 85 87 89 89 88 86 82 78 76 74 71 66 60 54 52 50 47 45 45 46 48 49 47 43 41 40 40 42 44 44 44 47 48 47 44 41 38 34 29 28 30 31 33 33 32 34 39 47 56 63 67 68 68 68 65 59 56
68 64 60 57 57 59 57 53 53 55 60 69 75 73 67 61 60 65 70 74 80 86 86 83 81 80 81 81 82 84 87 85 82 80 77 75 75 71 64 58 53 51 50 49 48 48 47 48 49 49 47 46 45 44 42 44 46 46 45 47 48 46 42 37 34 30 27 28 30 31 33 31 28 33 45 55 61 68 74 75 75 76 74 66 62
68 67 66 65 64 60 57 56 56 56 61 69 72 70 66 61 61 66 71 75 80 85 86 84 83 81 79 78 78 79 80 77 75 75 75 75 72 63 54 52 52 52 51 49 48 47 45 46 48 50 53 53 50 47 44 45 46 46 44 44 45 43 39 35 31 29 27 27 29 31 31 28 29 38 53 65 68 70 78 81 81 83 82 74 68